Regional Weather Roundup
Issued by NWS

Home | Current Version | Previous Version | Text Only | Print | Product List | Glossary On
Versions: 1 2 3 4 5 6 7 8 9 10 11 12 13 14 15 16 17 18 19 20 21 22 23 24 25 26 27 28
000
ASUS45 KBOI 240210
RWRID

IDAHO REGIONAL WEATHER ROUNDUP
NATIONAL WEATHER SERVICE BOISE ID
700 PM MST MON JAN 23 2017

NOTE: "FAIR" INDICATES FEW OR NO CLOUDS BELOW 12000 FEET
WITH NO SIGNIFICANT WEATHER AND/OR OBSTRUCTIONS TO VISIBILITY

IDZ012-014-240300-
SOUTHWEST IDAHO


CITY           SKY/WX    TMP DP  RH WIND       PRES   REMARKS
BOISE          CLOUDY    29  25  85 NW13      29.67R WCI  19
CALDWELL       CLOUDY    31  25  78 W9        29.71R WCI  23
MOUNTAIN HOME  MOCLDY    29  29 100 NW17      29.65R WCI  17
$$

IDZ016-017-240300-
SOUTHCENTRAL IDAHO


CITY           SKY/WX    TMP DP  RH WIND       PRES   REMARKS
BURLEY         MIX PCPN  30  26  85 W20G28    29.56R WCI  17
JEROME         CLOUDY    28  28 100 SW22      29.58R WCI  14
TWIN FALLS     CLOUDY    28  26  92 W16       29.59R WCI  16
$$

IDZ019>023-240300-
SOUTHEAST IDAHO


CITY           SKY/WX    TMP DP  RH WIND       PRES   REMARKS
IDAHO FALLS    LGT SNOW  27  26  96 NW18      29.45R VSB 1   WCI  14
POCATELLO      LGT SNOW  27  26  96 W20       29.53R VSB 1   WCI  13
REXBURG        CLOUDY    30  25  81 NE7       29.43R WCI  23
$$

IDZ006-010-011-018-031-032-240300-
CENTRAL IDAHO MOUNTAINS


CITY           SKY/WX    TMP DP  RH WIND       PRES   REMARKS
MCCALL         CLOUDY    23  18  81 NW5       29.59R WCI  17
HAILEY         CLOUDY    28  23  80 CALM      29.48R
STANLEY          N/A     21  19  92 NW3       29.52R
SALMON         CLOUDY    12  10  92 CALM      29.64S
CHALLIS        CLOUDY    18  17  96 CALM      29.56R
$$

IDZ002-004-006-007-026-240300-
NORTHERN IDAHO


CITY           SKY/WX    TMP DP  RH WIND       PRES   REMARKS
LEWISTON       CLOUDY    31  27  85 W5        29.86R WCI  26
LOWELL           N/A     33  30  88 CALM      29.81R
COEUR D`ALENE  CLOUDY    31  30  96 W3        29.79R
MULLAN PASS    CLOUDY    21  19  92 MISG      29.65R
$$




USA.gov is the U.S. government's official web portal to all federal, state and local government web resources and services.